Previsão horária em Barlewiczki

Hoje, 26 Julho, Segunda-feira

Tempo Temperatura Precipitação Vento Pressão Humidade
00:00 +21°C° 0 mm 3 m/s 756 mmHg 75%
01:00 +20°C° 0 mm 3 m/s 756 mmHg 76%
02:00 +20°C° 0 mm 3 m/s 756 mmHg 78%
03:00 +19°C° 0 mm 3 m/s 756 mmHg 81%
04:00 +18°C° 0 mm 3 m/s 756 mmHg 83%
05:00 +20°C° 0 mm 3 m/s 756 mmHg 78%
06:00 +21°C° 0 mm 3 m/s 756 mmHg 74%
07:00 +22°C° 0 mm 3 m/s 755 mmHg 69%
08:00 +22°C° 0 mm 4 m/s 756 mmHg 68%
09:00 +22°C° 0 mm 4 m/s 756 mmHg 68%
10:00 +23°C° 0 mm 4 m/s 756 mmHg 67%
11:00 +25°C° 0.1 mm 4 m/s 755 mmHg 63%
12:00 +27°C° 0.1 mm 4 m/s 755 mmHg 59%
13:00 +28°C° 0.1 mm 4 m/s 755 mmHg 54%
14:00 +28°C° 0.1 mm 4 m/s 754 mmHg 58%
15:00 +27°C° 0.1 mm 3 m/s 754 mmHg 62%
16:00 +27°C° 0.1 mm 3 m/s 754 mmHg 66%
17:00 +26°C° 0.9 mm 3 m/s 754 mmHg 71%
18:00 +25°C° 0.9 mm 3 m/s 754 mmHg 76%
19:00 +23°C° 0.9 mm 4 m/s 754 mmHg 81%
20:00 +22°C° 0.8 mm 3 m/s 754 mmHg 84%
21:00 +22°C° 0.8 mm 3 m/s 754 mmHg 88%
22:00 +21°C° 0.8 mm 3 m/s 754 mmHg 91%
23:00 +20°C° 0.4 mm 3 m/s 754 mmHg 92%

Amanhã, 27 Julho, Terça-feira

Tempo Temperatura Precipitação Vento Pressão Humidade
00:00 +20°C° 0.4 mm 2 m/s 754 mmHg 94%
01:00 +19°C° 0.4 mm 2 m/s 754 mmHg 95%
02:00 +19°C° 0.2 mm 2 m/s 754 mmHg 95%
03:00 +20°C° 0.2 mm 1 m/s 754 mmHg 96%
04:00 +19°C° 0.2 mm 1 m/s 754 mmHg 96%
05:00 +21°C° 0 mm 1 m/s 754 mmHg 92%
06:00 +22°C° 0 mm 1 m/s 754 mmHg 89%
07:00 +23°C° 0 mm 1 m/s 754 mmHg 85%
08:00 +24°C° 0.1 mm 1 m/s 754 mmHg 79%
09:00 +25°C° 0.1 mm 2 m/s 754 mmHg 74%
10:00 +26°C° 0.1 mm 3 m/s 754 mmHg 68%
11:00 +27°C° 0.5 mm 3 m/s 754 mmHg 65%
12:00 +27°C° 0.5 mm 3 m/s 754 mmHg 62%
13:00 +28°C° 0.5 mm 3 m/s 754 mmHg 59%
14:00 +28°C° 0 mm 3 m/s 754 mmHg 57%
15:00 +28°C° 0 mm 3 m/s 754 mmHg 54%
16:00 +29°C° 0 mm 3 m/s 754 mmHg 52%
17:00 +27°C° 0.2 mm 3 m/s 754 mmHg 62%
18:00 +25°C° 0.2 mm 2 m/s 754 mmHg 71%
19:00 +23°C° 0.2 mm 2 m/s 754 mmHg 81%
20:00 +21°C° 0.2 mm 2 m/s 754 mmHg 84%
21:00 +21°C° 0.2 mm 1 m/s 754 mmHg 87%
22:00 +20°C° 0.2 mm 1 m/s 755 mmHg 90%
23:00 +20°C° 0 mm 1 m/s 755 mmHg 89%

Depois de amanhã, 28 Julho, Quarta-feira

Tempo Temperatura Precipitação Vento Pressão Humidade
00:00 +20°C° 0 mm 1 m/s 755 mmHg 89%
01:00 +20°C° 0 mm 1 m/s 754 mmHg 88%
02:00 +20°C° 0 mm 1 m/s 754 mmHg 89%
03:00 +19°C° 0 mm 1 m/s 754 mmHg 89%
04:00 +18°C° 0 mm 2 m/s 754 mmHg 90%
05:00 +20°C° 0 mm 2 m/s 754 mmHg 84%
06:00 +21°C° 0 mm 3 m/s 754 mmHg 79%
07:00 +22°C° 0 mm 3 m/s 754 mmHg 74%
08:00 +25°C° 0 mm 4 m/s 754 mmHg 65%
09:00 +27°C° 0 mm 5 m/s 754 mmHg 56%
10:00 +29°C° 0 mm 5 m/s 754 mmHg 47%
11:00 +29°C° 0 mm 6 m/s 754 mmHg 44%
12:00 +30°C° 0 mm 6 m/s 754 mmHg 41%
13:00 +30°C° 0 mm 6 m/s 753 mmHg 38%
14:00 +30°C° 0 mm 6 m/s 753 mmHg 39%
15:00 +30°C° 0 mm 6 m/s 754 mmHg 40%
16:00 +29°C° 0 mm 6 m/s 754 mmHg 41%
17:00 +27°C° 0 mm 5 m/s 754 mmHg 48%
18:00 +26°C° 0 mm 4 m/s 754 mmHg 55%
19:00 +24°C° 0 mm 3 m/s 754 mmHg 62%
20:00 +22°C° 0 mm 3 m/s 754 mmHg 65%
21:00 +21°C° 0 mm 2 m/s 754 mmHg 69%
22:00 +20°C° 0 mm 2 m/s 754 mmHg 72%
23:00 +18°C° 0 mm 2 m/s 754 mmHg 78%

29 Julho, Quinta-feira

Tempo Temperatura Precipitação Vento Pressão Humidade
00:00 +17°C° 0 mm 2 m/s 754 mmHg 83%
01:00 +16°C° 0 mm 3 m/s 754 mmHg 88%
02:00 +16°C° 0 mm 3 m/s 754 mmHg 91%
03:00 +16°C° 0 mm 3 m/s 754 mmHg 93%
04:00 +14°C° 0 mm 3 m/s 754 mmHg 95%
05:00 +17°C° 0 mm 3 m/s 754 mmHg 87%
06:00 +19°C° 0 mm 4 m/s 754 mmHg 79%
07:00 +20°C° 0 mm 4 m/s 754 mmHg 71%
08:00 +22°C° 0 mm 5 m/s 754 mmHg 63%
09:00 +25°C° 0 mm 5 m/s 754 mmHg 55%
10:00 +26°C° 0 mm 5 m/s 754 mmHg 47%
11:00 +26°C° 0 mm 5 m/s 754 mmHg 47%
12:00 +26°C° 0 mm 5 m/s 753 mmHg 47%
13:00 +26°C° 0 mm 4 m/s 753 mmHg 47%
14:00 +26°C° 0 mm 5 m/s 753 mmHg 45%
15:00 +27°C° 0 mm 5 m/s 753 mmHg 44%
16:00 +27°C° 0 mm 5 m/s 753 mmHg 43%
17:00 +26°C° 0 mm 4 m/s 753 mmHg 47%
18:00 +24°C° 0 mm 3 m/s 753 mmHg 51%
19:00 +22°C° 0 mm 3 m/s 753 mmHg 55%
20:00 +21°C° 0 mm 2 m/s 753 mmHg 62%
21:00 +19°C° 0 mm 2 m/s 753 mmHg 69%
22:00 +18°C° 0 mm 1 m/s 753 mmHg 75%
23:00 +17°C° 0 mm 2 m/s 753 mmHg 76%

30 Julho, Sexta-feira

Tempo Temperatura Precipitação Vento Pressão Humidade
00:00 +17°C° 0 mm 2 m/s 753 mmHg 77%
01:00 +16°C° 0 mm 2 m/s 753 mmHg 78%
02:00 +16°C° 0 mm 2 m/s 752 mmHg 77%
03:00 +16°C° 0 mm 2 m/s 752 mmHg 75%
04:00 +16°C° 0 mm 2 m/s 752 mmHg 74%
05:00 +17°C° 0 mm 2 m/s 752 mmHg 69%
06:00 +19°C° 0 mm 3 m/s 751 mmHg 64%
07:00 +21°C° 0 mm 3 m/s 751 mmHg 59%
08:00 +22°C° 0 mm 4 m/s 750 mmHg 59%
09:00 +23°C° 0 mm 5 m/s 750 mmHg 59%
10:00 +24°C° 0 mm 6 m/s 749 mmHg 60%
11:00 +24°C° 0.4 mm 6 m/s 749 mmHg 65%
12:00 +24°C° 0.4 mm 6 m/s 748 mmHg 69%
13:00 +24°C° 0.4 mm 6 m/s 748 mmHg 74%
14:00 +26°C° 0.6 mm 6 m/s 747 mmHg 67%
15:00 +27°C° 0.6 mm 6 m/s 747 mmHg 59%
16:00 +28°C° 0.6 mm 6 m/s 747 mmHg 52%
17:00 +26°C° 0 mm 6 m/s 747 mmHg 50%
18:00 +23°C° 0 mm 7 m/s 748 mmHg 49%
19:00 +21°C° 0 mm 7 m/s 748 mmHg 47%
20:00 +20°C° 0 mm 6 m/s 749 mmHg 51%
21:00 +19°C° 0 mm 5 m/s 749 mmHg 56%
22:00 +18°C° 0 mm 4 m/s 749 mmHg 60%
23:00 +17°C° 0 mm 4 m/s 749 mmHg 64%

31 Julho, Sábado

Tempo Temperatura Precipitação Vento Pressão Humidade
00:00 +15°C° 0 mm 4 m/s 750 mmHg 68%
01:00 +14°C° 0 mm 4 m/s 750 mmHg 72%
02:00 +14°C° 0 mm 4 m/s 750 mmHg 71%
03:00 +14°C° 0 mm 4 m/s 749 mmHg 70%
04:00 +14°C° 0 mm 5 m/s 749 mmHg 68%
05:00 +15°C° 0 mm 5 m/s 749 mmHg 65%
06:00 +17°C° 0 mm 6 m/s 749 mmHg 62%
07:00 +19°C° 0 mm 6 m/s 749 mmHg 59%
08:00 +20°C° 0 mm 7 m/s 749 mmHg 55%
09:00 +22°C° 0 mm 7 m/s 749 mmHg 51%
10:00 +23°C° 0 mm 8 m/s 749 mmHg 47%
11:00 +23°C° 0 mm 8 m/s 749 mmHg 45%
12:00 +24°C° 0 mm 8 m/s 749 mmHg 44%
13:00 +24°C° 0 mm 8 m/s 749 mmHg 43%
14:00 +24°C° 0 mm 8 m/s 749 mmHg 44%
15:00 +24°C° 0 mm 8 m/s 749 mmHg 45%
16:00 +24°C° 0 mm 8 m/s 749 mmHg 46%
17:00 +23°C° 0 mm 7 m/s 749 mmHg 50%
18:00 +22°C° 0 mm 6 m/s 749 mmHg 54%
19:00 +21°C° 0 mm 5 m/s 749 mmHg 57%
20:00 +20°C° 0 mm 5 m/s 750 mmHg 62%
21:00 +18°C° 0 mm 4 m/s 750 mmHg 67%
22:00 +17°C° 0 mm 3 m/s 750 mmHg 72%
23:00 +16°C° 0 mm 3 m/s 750 mmHg 74%
Mostrar mais